Decherd, TN

8:31 AM CST on February 25, 2017 (GMT -0600)
Winchester Municipal

Weather History for KBGF - November, 2014

Change the Weather History Date:

Monday, November 17, 2014

  Actual Average (KTHA) Record (KTHA)
Temperature  
Mean Temperature 37 °F -  
Max Temperature 53 °F 60 °F 77 °F (2016)
Min Temperature 21 °F 36 °F 17 °F (2014)
Degree Days  
Heating Degree Days 28    
Moisture  
Dew Point 29 °F    
Average Humidity 82    
Maximum Humidity 100    
Minimum Humidity 54    
Precipitation  
Precipitation 0.00 in - - ()
Sea Level Pressure  
Sea Level Pressure 29.98 in    
Wind  
Wind Speed 6 mph (NW)    
Max Wind Speed 14 mph    
Max Gust Speed -    
Visibility 8 miles    
Events      
Averages and records for this station are not official NWS values.
T = Trace of Precipitation, MM = Missing Value Source: NWS Daily Summary

Daily Weather History Graph

Daily Weather History Graph

Search for Another Location

Airport or City:

Trip Planner

Search our weather history database for the weather conditions in past years. The results will help you decide how hot, cold, wet, or windy it might be!

Date:

Astronomy

Nov. 17, 2014 Rise Set
Actual Time 7:21 AM EST 5:37 PM EST
Civil Twilight 6:53 AM EST 6:04 PM EST
Nautical Twilight 6:23 AM EST 6:34 PM EST
Astronomical Twilight 5:53 AM EST 7:05 PM EST
Moon 2:33 AM EST (11/17) 2:50 PM EST (11/17)
Length of Visible Light 11h 10m
Length of Day
10h 16m
Waning Crescent, 23% of the Moon is Illuminated
Nov 17
Waning Crescent
Nov 22
New
Nov 29
First Quarter
Dec 6
Full
Dec 14
Last Quarter

Hourly Weather History & Observations

Time (EST) Temp. Windchill Dew Point Humidity Pressure Visibility Wind Dir Wind Speed Gust Speed Precip Events Conditions
12:15 AM 53.6 °F - 51.8 °F 94% 29.80 in 10.0 mi Calm Calm - N/A   Overcast
12:35 AM 53.6 °F - 51.8 °F 94% 29.80 in 10.0 mi Calm Calm - N/A   Overcast
12:55 AM 53.6 °F - 51.8 °F 94% 29.78 in 9.0 mi Calm Calm - N/A   Overcast
1:55 AM 46.4 °F 42.9 °F 46.4 °F 100% 29.76 in 3.0 mi NW 6.9 mph - N/A   Overcast
2:15 AM 44.6 °F 38.8 °F 44.6 °F 100% 29.80 in 2.5 mi NW 11.5 mph - N/A   Overcast
2:35 AM 42.8 °F 38.6 °F 42.8 °F 100% 29.78 in 4.0 mi North 6.9 mph - N/A   Overcast
2:55 AM 42.8 °F 39.3 °F 42.8 °F 100% 29.83 in 4.0 mi WNW 5.8 mph - N/A   Overcast
3:15 AM 42.8 °F - 42.8 °F 100% 29.81 in 2.5 mi Calm Calm - N/A   Overcast
3:35 AM 42.8 °F - 42.8 °F 100% 29.80 in 2.5 mi Calm Calm - N/A   Overcast
3:55 AM 42.8 °F 41.1 °F 42.8 °F 100% 29.78 in 3.0 mi ESE 3.5 mph - N/A   Overcast
4:15 AM 42.8 °F 41.1 °F 42.8 °F 100% 29.77 in 5.0 mi NW 3.5 mph - N/A   Overcast
4:35 AM 42.8 °F - 42.8 °F 100% 29.78 in 6.0 mi Calm Calm - N/A   Overcast
4:55 AM 42.8 °F 38.6 °F 42.8 °F 100% 29.78 in 4.0 mi NW 6.9 mph - N/A   Overcast
5:15 AM 42.8 °F 39.3 °F 41.0 °F 93% 29.77 in 7.0 mi NNW 5.8 mph - N/A   Overcast
5:35 AM 41.0 °F 34.7 °F 39.2 °F 93% 29.77 in 8.0 mi NNW 10.4 mph - N/A   Overcast
5:55 AM 39.2 °F 33.6 °F 39.2 °F 100% 29.81 in 10.0 mi NW 8.1 mph - N/A   Overcast
6:15 AM 39.2 °F 32.5 °F 37.4 °F 93% 29.83 in 3.0 mi NW 10.4 mph - N/A   Overcast
6:35 AM 37.4 °F 29.8 °F 35.6 °F 93% 29.85 in 2.5 mi NW 11.5 mph - N/A   Overcast
6:55 AM 35.6 °F 29.2 °F 35.6 °F 100% 29.85 in 3.0 mi NNW 8.1 mph - N/A   Overcast
7:15 AM 35.6 °F 29.9 °F 35.6 °F 100% 29.86 in 4.0 mi NNW 6.9 mph - N/A   Overcast
7:35 AM 33.8 °F 25.8 °F 33.8 °F 100% 29.88 in 4.0 mi NW 10.4 mph - N/A   Overcast
7:55 AM 33.8 °F 25.3 °F 33.8 °F 100% 29.89 in 5.0 mi NNW 11.5 mph - N/A   Overcast
8:15 AM 33.8 °F 25.3 °F 33.8 °F 100% 29.91 in 4.0 mi NW 11.5 mph - N/A   Overcast
8:35 AM 33.8 °F 24.8 °F 32.0 °F 93% 29.93 in 3.0 mi NNW 12.7 mph - N/A   Overcast
8:55 AM 33.8 °F 24.8 °F 32.0 °F 93% 29.94 in 8.0 mi NNW 12.7 mph - N/A   Overcast
9:15 AM 32.0 °F 23.6 °F 30.2 °F 93% 29.96 in 4.0 mi NW 10.4 mph - N/A   Overcast
9:35 AM 30.2 °F 20.8 °F 30.2 °F 100% 29.98 in 5.0 mi NW 11.5 mph - N/A   Overcast
9:55 AM 30.2 °F 21.9 °F 30.2 °F 100% 29.96 in 6.0 mi NNW 9.2 mph - N/A   Overcast
10:15 AM 32.0 °F 26.4 °F 30.2 °F 93% 29.96 in 10.0 mi NNW 5.8 mph - N/A   Overcast
10:35 AM 32.0 °F 24.2 °F 30.2 °F 93% 29.96 in 10.0 mi NNW 9.2 mph - N/A   Overcast
10:55 AM 32.0 °F 23.0 °F 28.4 °F 87% 29.96 in 10.0 mi NNW 11.5 mph - N/A   Overcast
11:15 AM 33.8 °F 26.4 °F 30.2 °F 87% 29.96 in 10.0 mi NW 9.2 mph - N/A   Overcast
11:35 AM 33.8 °F 25.3 °F 28.4 °F 81% 29.97 in 10.0 mi NW 11.5 mph - N/A   Overcast
11:55 AM 32.0 °F 23.6 °F 28.4 °F 87% 29.97 in 10.0 mi NW 10.4 mph - N/A   Overcast
12:15 PM 32.0 °F 24.8 °F 28.4 °F 87% 29.97 in 10.0 mi NNW 8.1 mph - N/A   Overcast
12:35 PM 32.0 °F 24.8 °F 28.4 °F 87% 29.98 in 10.0 mi NW 8.1 mph - N/A   Overcast
12:55 PM 32.0 °F 24.8 °F 28.4 °F 87% 29.98 in 10.0 mi NW 8.1 mph - N/A   Overcast
1:15 PM 32.0 °F 25.6 °F 28.4 °F 87% 29.99 in 10.0 mi Variable 6.9 mph - N/A   Overcast
1:35 PM 32.0 °F 24.2 °F 28.4 °F 87% 29.99 in 10.0 mi WNW 9.2 mph - N/A   Overcast
1:55 PM 32.0 °F 23.6 °F 26.6 °F 80% 30.00 in 10.0 mi NW 10.4 mph - N/A   Overcast
2:15 PM 32.0 °F 23.6 °F 28.4 °F 87% 30.02 in 10.0 mi NW 10.4 mph - N/A   Overcast
2:35 PM 32.0 °F 24.2 °F 24.8 °F 75% 30.02 in 10.0 mi WNW 9.2 mph - N/A   Mostly Cloudy
2:55 PM 33.8 °F 25.3 °F 24.8 °F 70% 30.02 in 10.0 mi WNW 11.5 mph - N/A   Mostly Cloudy
3:15 PM 33.8 °F 25.3 °F 23.0 °F 65% 30.02 in 10.0 mi NW 11.5 mph - N/A   Overcast
3:35 PM 33.8 °F 26.4 °F 21.2 °F 60% 30.02 in 10.0 mi NW 9.2 mph - N/A   Mostly Cloudy
3:55 PM 32.0 °F 24.8 °F 21.2 °F 64% 30.03 in 10.0 mi NW 8.1 mph - N/A   Scattered Clouds
4:15 PM 32.0 °F 24.8 °F 21.2 °F 64% 30.03 in 10.0 mi NW 8.1 mph - N/A   Mostly Cloudy
4:35 PM 33.8 °F 25.3 °F 21.2 °F 60% 30.05 in 10.0 mi NW 11.5 mph - N/A   Mostly Cloudy
4:55 PM 30.2 °F 21.3 °F 21.2 °F 69% 30.06 in 10.0 mi NW 10.4 mph - N/A   Scattered Clouds
5:15 PM 30.2 °F 20.8 °F 19.4 °F 64% 30.07 in 10.0 mi NW 11.5 mph - N/A   Scattered Clouds
5:35 PM 30.2 °F 21.9 °F 19.4 °F 64% 30.08 in 10.0 mi WNW 9.2 mph - N/A   Scattered Clouds
5:55 PM 30.2 °F 21.3 °F 19.4 °F 64% 30.09 in 10.0 mi NW 10.4 mph - N/A   Mostly Cloudy
6:15 PM 28.4 °F 20.4 °F 19.4 °F 69% 30.10 in 10.0 mi NW 8.1 mph - N/A   Overcast
6:35 PM 28.4 °F 19.7 °F 17.6 °F 64% 30.12 in 10.0 mi NNW 9.2 mph - N/A   Overcast
6:55 PM 28.4 °F 19.7 °F 17.6 °F 64% 30.13 in 10.0 mi NW 9.2 mph - N/A   Overcast
7:15 PM 28.4 °F 22.2 °F 17.6 °F 64% 30.13 in 10.0 mi NW 5.8 mph - N/A   Overcast
7:35 PM 28.4 °F 19.7 °F 17.6 °F 64% 30.15 in 10.0 mi NW 9.2 mph - N/A   Overcast
7:55 PM 28.4 °F 19.1 °F 17.6 °F 64% 30.15 in 10.0 mi NW 10.4 mph - N/A   Overcast
8:15 PM 28.4 °F 22.2 °F 17.6 °F 64% 30.17 in 10.0 mi NW 5.8 mph - N/A   Overcast
8:35 PM 26.6 °F 16.8 °F 15.8 °F 64% 30.17 in 10.0 mi NNW 10.4 mph - N/A   Overcast
8:55 PM 26.6 °F 17.5 °F 15.8 °F 64% 30.18 in 10.0 mi NNW 9.2 mph - N/A   Overcast
9:15 PM 26.6 °F 15.2 °F 17.6 °F 69% 30.19 in 10.0 mi NNW 13.8 mph - N/A   Overcast
9:35 PM 26.6 °F 15.7 °F 15.8 °F 64% 30.20 in 10.0 mi NNW 12.7 mph - N/A   Overcast
9:55 PM 24.8 °F 15.3 °F 12.2 °F 59% 30.21 in 10.0 mi NW 9.2 mph - N/A   Mostly Cloudy
10:15 PM 24.8 °F 17.9 °F 10.4 °F 54% 30.21 in 10.0 mi NW 5.8 mph - N/A   Partly Cloudy
10:35 PM 23.0 °F 18.4 °F 10.4 °F 59% 30.22 in 10.0 mi NW 3.5 mph - N/A   Clear
10:55 PM 23.0 °F - 12.2 °F 63% 30.21 in 10.0 mi Calm Calm - N/A   Clear
11:15 PM 21.2 °F 16.4 °F 12.2 °F 68% 30.21 in 10.0 mi WNW 3.5 mph - N/A   Clear
11:35 PM 21.2 °F - 12.2 °F 68% 30.21 in 10.0 mi Calm Calm - N/A   Clear
11:55 PM 21.2 °F 16.4 °F 12.2 °F 68% 30.21 in 10.0 mi NW 3.5 mph - N/A   Clear